Location: Blankensee
(53.5126°N, 14.3055°E)
Time: 18:03:53
(UTC+00:00)

Cosmos 2082 - Pass Details

Date: 08 August 2020
Orbit: 834 x 855 km, 71.0° (Epoch: 20 September)

Event Time Altitude Azimuth Distance (km) Brightness Sun altitude
Exits shadow 01:39:15 18° 204° (SSW) 1,933 5.0 -13.3°
Maximum altitude 01:43:29 81° 119° (ESE) 852 3.7 -12.9°
Drops below altitude 10° 01:49:07 10° 33° (NNE) 2,456 7.6 -12.4°
Sets 01:51:34 0° 33° (NNE) 3,395 8.9 -12.2°
